| time (UTC) | temp F | wind direction | speed MPH | gust MPH | rain 1hr in | rain 24hr in | rain mn in | humidity % | barometer mb |
| 20260505204532 | 56 | 29 | 4.0 | 9.0 | 0.00 | 0.03 | 0.03 | 89 | 1013.5 |
| 20260505204032 | 56 | 64 | 4.0 | 9.0 | 0.00 | 0.03 | 0.03 | 89 | 1013.4 |
| 20260505203532 | 56 | 5 | 5.0 | 10.0 | 0.00 | 0.03 | 0.03 | 89 | 1013.3 |
| 20260505202532 | 56 | 48 | 5.0 | 12.0 | 0.00 | 0.03 | 0.03 | 89 | 1013.4 |
| 20260505202033 | 56 | 53 | 4.0 | 12.0 | 0.00 | 0.03 | 0.03 | 89 | 1013.5 |
| 20260505201533 | 56 | 43 | 3.0 | 8.0 | 0.00 | 0.03 | 0.03 | 89 | 1013.5 |
| 20260505201032 | 56 | 16 | 4.0 | 10.0 | 0.00 | 0.03 | 0.03 | 89 | 1013.4 |
| 20260505200533 | 56 | 355 | 5.0 | 10.0 | 0.00 | 0.03 | 0.03 | 89 | 1013.5 |
| 20260505200031 | 56 | 32 | 5.0 | 10.0 | 0.00 | 0.03 | 0.03 | 89 | 1013.4 |
| 20260505195531 | 56 | 28 | 4.0 | 10.0 | 0.00 | 0.03 | 0.03 | 89 | 1013.4 |
| 20260505195032 | 56 | 315 | 5.0 | 9.0 | 0.00 | 0.03 | 0.03 | 90 | 1013.4 |
| 20260505194530 | 56 | 317 | 5.0 | 9.0 | 0.00 | 0.03 | 0.03 | 89 | 1013.5 |
| 20260505194031 | 56 | 355 | 4.0 | 10.0 | 0.00 | 0.03 | 0.03 | 90 | 1013.4 |
| 20260505193531 | 56 | 331 | 5.0 | 10.0 | 0.00 | 0.03 | 0.03 | 89 | 1013.4 |
| 20260505193032 | 56 | 349 | 5.0 | 10.0 | 0.00 | 0.03 | 0.03 | 89 | 1013.3 |
| 20260505192530 | 56 | 0 | 4.0 | 10.0 | 0.00 | 0.03 | 0.03 | 89 | 1013.4 |
| 20260505192031 | 56 | 342 | 4.0 | 8.0 | 0.00 | 0.03 | 0.03 | 89 | 1013.4 |
| 20260505191530 | 56 | 34 | 4.0 | 9.0 | 0.00 | 0.03 | 0.03 | 89 | 1013.4 |
| 20260505191031 | 56 | 33 | 4.0 | 9.0 | 0.00 | 0.03 | 0.03 | 89 | 1013.5 |
| 20260505190531 | 56 | 5 | 4.0 | 8.0 | 0.00 | 0.03 | 0.03 | 89 | 1013.3 |
| 20260505185532 | 56 | 5 | 4.0 | 8.0 | 0.00 | 0.03 | 0.03 | 89 | 1013.3 |
| 20260505185030 | 56 | 35 | 4.0 | 10.0 | 0.00 | 0.03 | 0.03 | 89 | 1013.2 |
| 20260505184531 | 56 | 36 | 4.0 | 10.0 | 0.00 | 0.03 | 0.03 | 89 | 1013.3 |
| 20260505184032 | 56 | 42 | 4.0 | 9.0 | 0.00 | 0.03 | 0.03 | 89 | 1013.2 |
| 20260505183531 | 56 | 16 | 4.0 | 9.0 | 0.00 | 0.03 | 0.03 | 89 | 1013.2 |
| 20260505183032 | 57 | 17 | 4.0 | 7.0 | 0.00 | 0.03 | 0.03 | 89 | 1013.3 |
| 20260505182530 | 57 | 5 | 4.0 | 7.0 | 0.00 | 0.03 | 0.03 | 89 | 1013.2 |
| 20260505182031 | 57 | 41 | 3.0 | 7.0 | 0.00 | 0.03 | 0.03 | 89 | 1013.2 |
| 20260505181025 | 57 | 31 | 5.0 | 10.0 | 0.00 | 0.03 | 0.03 | 89 | 1013.1 |
| 20260505180521 | 57 | 17 | 4.0 | 10.0 | 0.00 | 0.03 | 0.03 | 89 | 1013.0 |
| 20260505180013 | 57 | 329 | 4.0 | 9.0 | 0.00 | 0.03 | 0.03 | 89 | 1013.1 |
| 20260505175507 | 57 | 41 | 4.0 | 10.0 | 0.00 | 0.03 | 0.03 | 89 | 1013.0 |
| 20260505175007 | 57 | 60 | 4.0 | 11.0 | 0.00 | 0.03 | 0.03 | 89 | 1013.0 |
| 20260505174508 | 57 | 23 | 4.0 | 11.0 | 0.00 | 0.03 | 0.03 | 89 | 1013.0 |
| 20260505174007 | 57 | 9 | 4.0 | 9.0 | 0.00 | 0.03 | 0.03 | 89 | 1012.9 |
| 20260505173505 | 57 | 64 | 4.0 | 9.0 | 0.00 | 0.03 | 0.03 | 89 | 1013.1 |
| 20260505173006 | 57 | 56 | 4.0 | 9.0 | 0.00 | 0.03 | 0.03 | 89 | 1013.1 |
| 20260505172506 | 57 | 109 | 4.0 | 9.0 | 0.00 | 0.03 | 0.03 | 89 | 1013.2 |
| 20260505172005 | 57 | 54 | 4.0 | 12.0 | 0.00 | 0.03 | 0.03 | 89 | 1013.1 |
| 20260505171507 | 57 | 52 | 5.0 | 12.0 | 0.00 | 0.03 | 0.03 | 89 | 1013.0 |
| 20260505171006 | 57 | 41 | 5.0 | 10.0 | 0.00 | 0.03 | 0.03 | 88 | 1012.9 |
| 20260505170506 | 57 | 42 | 4.0 | 9.0 | 0.00 | 0.03 | 0.03 | 88 | 1012.9 |
| 20260505170005 | 57 | 22 | 4.0 | 10.0 | 0.00 | 0.03 | 0.03 | 88 | 1012.9 |
| 20260505165506 | 57 | 16 | 4.0 | 10.0 | 0.00 | 0.03 | 0.03 | 88 | 1012.9 |
| 20260505165004 | 57 | 351 | 4.0 | 10.0 | 0.00 | 0.03 | 0.03 | 88 | 1013.0 |
| 20260505164504 | 57 | 34 | 5.0 | 14.0 | 0.00 | 0.03 | 0.03 | 88 | 1013.0 |
| 20260505164003 | 58 | 11 | 5.0 | 14.0 | 0.00 | 0.03 | 0.03 | 88 | 1013.0 |
| 20260505163503 | 58 | 40 | 4.0 | 9.0 | 0.00 | 0.03 | 0.03 | 88 | 1013.0 |
| 20260505163002 | 58 | 5 | 5.0 | 10.0 | 0.00 | 0.03 | 0.03 | 88 | 1013.0 |
| 20260505162501 | 58 | 13 | 5.0 | 12.0 | 0.00 | 0.03 | 0.03 | 88 | 1013.0 |
| 20260505161956 | 58 | 29 | 5.0 | 12.0 | 0.00 | 0.03 | 0.03 | 88 | 1013.0 |
| 20260505160442 | 58 | 55 | 5.0 | 10.0 | 0.00 | 0.03 | 0.03 | 88 | 1013.1 |
| 20260505152938 | 60 | 0 | 3.0 | 9.0 | 0.00 | 0.03 | 0.03 | 85 | 1013.3 |
| 20260505152435 | 60 | 5 | 3.0 | 5.0 | 0.00 | 0.03 | 0.03 | 85 | 1013.2 |
| 20260505151935 | 60 | 12 | 3.0 | 6.0 | 0.00 | 0.03 | 0.03 | 85 | 1013.2 |
| 20260505150935 | 60 | 56 | 2.0 | 6.0 | 0.00 | 0.03 | 0.03 | 85 | 1013.2 |
| 20260505150435 | 60 | 57 | 3.0 | 6.0 | 0.00 | 0.03 | 0.03 | 85 | 1013.1 |
| 20260505124935 | 60 | 96 | 1.0 | 4.0 | 0.00 | 0.03 | 0.03 | 84 | 1014.1 |
| 20260505123931 | 60 | 76 | 2.0 | 4.0 | 0.00 | 0.03 | 0.03 | 84 | 1014.1 |
| 20260505123431 | 60 | 64 | 2.0 | 4.0 | 0.00 | 0.03 | 0.03 | 84 | 1014.1 |
| 20260505122930 | 60 | 30 | 2.0 | 6.0 | 0.00 | 0.03 | 0.03 | 84 | 1014.1 |
| 20260505122431 | 60 | 28 | 2.0 | 6.0 | 0.00 | 0.03 | 0.03 | 83 | 1014.2 |
| 20260505121930 | 60 | 102 | 2.0 | 7.0 | 0.00 | 0.03 | 0.03 | 83 | 1014.2 |
| 20260505121432 | 60 | 91 | 3.0 | 8.0 | 0.00 | 0.03 | 0.03 | 82 | 1014.2 |
| 20260505120427 | 60 | 61 | 2.0 | 7.0 | 0.00 | 0.03 | 0.03 | 82 | 1014.3 |
| 20260505115919 | 60 | 102 | 2.0 | 7.0 | 0.00 | 0.03 | 0.03 | 81 | 1014.2 |
| 20260505115414 | 60 | 50 | 3.0 | 8.0 | 0.00 | 0.03 | 0.03 | 81 | 1014.2 |
| 20260505114906 | 60 | 107 | 3.0 | 8.0 | 0.00 | 0.03 | 0.03 | 80 | 1014.3 |
| 20260505114406 | 60 | 98 | 3.0 | 8.0 | 0.00 | 0.03 | 0.03 | 80 | 1014.3 |
| 20260505113904 | 60 | 116 | 5.0 | 10.0 | 0.00 | 0.03 | 0.03 | 80 | 1014.3 |
| 20260505113406 | 60 | 88 | 4.0 | 10.0 | 0.01 | 0.03 | 0.03 | 79 | 1014.2 |
| 20260505112906 | 60 | 53 | 4.0 | 10.0 | 0.01 | 0.03 | 0.03 | 80 | 1014.3 |
| 20260505112410 | 60 | 104 | 5.0 | 10.0 | 0.01 | 0.03 | 0.03 | 80 | 1014.2 |
| 20260505111905 | 60 | 113 | 5.0 | 10.0 | 0.01 | 0.03 | 0.03 | 80 | 1014.2 |
| 20260505111404 | 60 | 126 | 5.0 | 10.0 | 0.01 | 0.03 | 0.03 | 79 | 1014.1 |
| 20260505110904 | 60 | 117 | 5.0 | 12.0 | 0.01 | 0.03 | 0.03 | 79 | 1014.3 |
| 20260505110405 | 60 | 25 | 3.0 | 12.0 | 0.01 | 0.03 | 0.03 | 79 | 1014.3 |
| 20260505101903 | 60 | 126 | 2.0 | 7.0 | 0.00 | 0.02 | 0.02 | 77 | 1014.6 |
| 20260505101402 | 60 | 115 | 1.0 | 7.0 | 0.00 | 0.02 | 0.02 | 77 | 1014.7 |
| 20260505100904 | 60 | 142 | 1.0 | 3.0 | 0.00 | 0.02 | 0.02 | 78 | 1014.8 |
| 20260505100402 | 60 | 142 | 1.0 | 3.0 | 0.01 | 0.02 | 0.02 | 79 | 1014.9 |
| 20260505095903 | 60 | 146 | 1.0 | 4.0 | 0.02 | 0.02 | 0.02 | 80 | 1014.9 |
| 20260505094902 | 60 | 90 | 2.0 | 4.0 | 0.02 | 0.02 | 0.02 | 79 | 1014.8 |
| 20260505094402 | 60 | 115 | 2.0 | 4.0 | 0.02 | 0.02 | 0.02 | 80 | 1014.8 |
| 20260505093903 | 60 | 119 | 1.0 | 4.0 | 0.02 | 0.02 | 0.02 | 80 | 1014.6 |
| 20260505093402 | 60 | 101 | 1.0 | 3.0 | 0.02 | 0.02 | 0.02 | 80 | 1014.6 |
| 20260505092903 | 60 | 90 | 1.0 | 3.0 | 0.02 | 0.02 | 0.02 | 81 | 1014.6 |
| 20260505092403 | 60 | 149 | 0.0 | 3.0 | 0.02 | 0.02 | 0.02 | 81 | 1014.6 |
| 20260505091403 | 60 | 150 | 0.0 | 2.0 | 0.02 | 0.02 | 0.02 | 80 | 1014.6 |
| 20260505090902 | 60 | 163 | 0.0 | 1.0 | 0.02 | 0.02 | 0.02 | 80 | 1014.7 |
| 20260505090402 | 60 | 163 | 0.0 | 1.0 | 0.02 | 0.02 | 0.02 | 79 | 1014.7 |
| 20260505085903 | 60 | 163 | 0.0 | 0.0 | 0.01 | 0.00 | 0.01 | 78 | 1014.6 |
| 20260505085358 | 60 | 163 | 0.0 | 0.0 | 0.01 | 0.00 | 0.01 | 78 | 1014.6 |
| 20260505084358 | 60 | 163 | 0.0 | 0.0 | 0.00 | 0.00 | 0.00 | 78 | 1014.6 |
| 20260505083358 | 60 | 163 | 0.0 | 0.0 | 0.00 | 0.00 | 0.00 | 78 | 1014.6 |
| 20260505082356 | 60 | 163 | 0.0 | 0.0 | 0.00 | 0.00 | 0.00 | 76 | 1014.5 |
| 20260505081856 | 60 | 163 | 0.0 | 0.0 | 0.00 | 0.00 | 0.00 | 76 | 1014.5 |
| 20260505081357 | 60 | 163 | 0.0 | 0.0 | 0.00 | 0.00 | 0.00 | 76 | 1014.4 |
| 20260505080856 | 60 | 163 | 0.0 | 0.0 | 0.00 | 0.00 | 0.00 | 75 | 1014.4 |
| 20260505080356 | 60 | 163 | 0.0 | 2.0 | 0.00 | 0.00 | 0.00 | 75 | 1014.4 |
| 20260505075856 | 60 | 163 | 0.0 | 2.0 | 0.00 | 0.00 | 0.00 | 77 | 1014.5 |
| 20260505075354 | 60 | 163 | 0.0 | 2.0 | 0.00 | 0.00 | 0.00 | 77 | 1014.6 |
| 20260505074853 | 60 | 163 | 0.0 | 2.0 | 0.00 | 0.00 | 0.00 | 78 | 1014.6 |
| 20260505074351 | 60 | 164 | 0.0 | 2.0 | 0.00 | 0.00 | 0.00 | 78 | 1014.6 |
| 20260505073850 | 60 | 164 | 0.0 | 2.0 | 0.00 | 0.00 | 0.00 | 77 | 1014.6 |
| 20260505073350 | 60 | 177 | 0.0 | 2.0 | 0.00 | 0.00 | 0.00 | 77 | 1014.5 |
| 20260505072854 | 60 | 178 | 0.0 | 0.0 | 0.00 | 0.00 | 0.00 | 78 | 1014.5 |
| 20260505072350 | 60 | 178 | 0.0 | 1.0 | 0.00 | 0.00 | 0.00 | 78 | 1014.4 |
| 20260505071850 | 60 | 178 | 0.0 | 2.0 | 0.00 | 0.00 | 0.00 | 78 | 1014.4 |
| 20260505071350 | 60 | 176 | 0.0 | 2.0 | 0.00 | 0.00 | 0.00 | 78 | 1014.4 |
| 20260505070850 | 59 | 192 | 0.0 | 1.0 | 0.00 | 0.00 | 0.00 | 78 | 1014.4 |
| 20260505070350 | 59 | 192 | 0.0 | 3.0 | 0.00 | 0.00 | 0.00 | 78 | 1014.3 |
| 20260505065849 | 59 | 192 | 0.0 | 3.0 | 0.00 | 0.00 | 0.00 | 79 | 1014.3 |
| 20260505065351 | 59 | 163 | 0.0 | 0.0 | 0.00 | 0.00 | 0.00 | 79 | 1014.2 |
| 20260505064846 | 59 | 163 | 1.0 | 3.0 | 0.00 | 0.00 | 0.00 | 80 | 1014.2 |
| 20260505064346 | 59 | 163 | 1.0 | 3.0 | 0.00 | 0.00 | 0.00 | 81 | 1014.1 |
| 20260505063346 | 59 | 144 | 0.0 | 3.0 | 0.00 | 0.00 | 0.00 | 83 | 1014.2 |
| 20260505062846 | 59 | 147 | 1.0 | 4.0 | 0.00 | 0.00 | 0.00 | 83 | 1014.1 |
| 20260505062347 | 59 | 201 | 1.0 | 5.0 | 0.00 | 0.00 | 0.00 | 84 | 1014.2 |
| 20260505061850 | 59 | 169 | 1.0 | 5.0 | 0.00 | 0.00 | 0.00 | 85 | 1014.1 |
| 20260505061346 | 59 | 144 | 2.0 | 4.0 | 0.00 | 0.00 | 0.00 | 85 | 1014.0 |
| 20260505060346 | 58 | 152 | 2.0 | 4.0 | 0.00 | 0.00 | 0.00 | 86 | 1014.0 |
| 20260505055844 | 58 | 120 | 2.0 | 6.0 | 0.00 | 0.00 | 0.00 | 87 | 1013.9 |
| 20260505055344 | 58 | 122 | 1.0 | 6.0 | 0.00 | 0.00 | 0.00 | 87 | 1013.9 |
| 20260505054844 | 58 | 142 | 1.0 | 4.0 | 0.00 | 0.00 | 0.00 | 88 | 1013.8 |
| 20260505054342 | 58 | 105 | 1.0 | 3.0 | 0.00 | 0.00 | 0.00 | 88 | 1013.7 |
| 20260505053839 | 58 | 130 | 0.0 | 2.0 | 0.00 | 0.00 | 0.00 | 89 | 1013.6 |
| 20260505053340 | 58 | 119 | 0.0 | 2.0 | 0.00 | 0.00 | 0.00 | 89 | 1013.5 |
| 20260505052334 | 58 | 101 | 1.0 | 3.0 | 0.00 | 0.00 | 0.00 | 89 | 1013.4 |
| 20260505051333 | 59 | 83 | 0.0 | 0.0 | 0.00 | 0.00 | 0.00 | 90 | 1013.4 |
| 20260505050330 | 59 | 83 | 0.0 | 3.0 | 0.00 | 0.00 | 0.00 | 90 | 1013.5 |
| 20260505040819 | 58 | 94 | 2.0 | 4.0 | 0.00 | 0.00 | 0.00 | 89 | 1013.5 |
| 20260505040317 | 58 | 74 | 2.0 | 4.0 | 0.00 | 0.00 | 0.00 | 89 | 1013.5 |
| 20260505035818 | 58 | 72 | 2.0 | 4.0 | 0.00 | 0.00 | 0.00 | 89 | 1013.5 |
| 20260505035316 | 58 | 90 | 2.0 | 6.0 | 0.00 | 0.00 | 0.00 | 89 | 1013.4 |
| 20260505034816 | 58 | 107 | 1.0 | 6.0 | 0.00 | 0.00 | 0.00 | 89 | 1013.4 |
| 20260505034316 | 58 | 78 | 0.0 | 3.0 | 0.00 | 0.00 | 0.00 | 89 | 1013.4 |
| 20260505033814 | 58 | 74 | 1.0 | 4.0 | 0.00 | 0.00 | 0.00 | 89 | 1013.4 |
| 20260505033312 | 58 | 84 | 1.0 | 4.0 | 0.00 | 0.00 | 0.00 | 89 | 1013.3 |
| 20260505032809 | 58 | 57 | 1.0 | 3.0 | 0.00 | 0.00 | 0.00 | 89 | 1013.3 |
| 20260505032311 | 58 | 43 | 2.0 | 4.0 | 0.00 | 0.00 | 0.00 | 89 | 1013.3 |
| 20260505031805 | 58 | 47 | 2.0 | 4.0 | 0.00 | 0.00 | 0.00 | 88 | 1013.4 |
| 20260505031304 | 58 | 40 | 2.0 | 4.0 | 0.00 | 0.00 | 0.00 | 88 | 1013.5 |
| 20260505030805 | 58 | 28 | 2.0 | 4.0 | 0.00 | 0.00 | 0.00 | 88 | 1013.4 |
| 20260505030305 | 58 | 30 | 2.0 | 4.0 | 0.00 | 0.00 | 0.00 | 88 | 1013.5 |
| 20260505025803 | 58 | 49 | 2.0 | 5.0 | 0.00 | 0.00 | 0.00 | 88 | 1013.5 |
| 20260505025304 | 58 | 37 | 3.0 | 5.0 | 0.00 | 0.00 | 0.00 | 88 | 1013.5 |
| 20260505024801 | 59 | 36 | 3.0 | 5.0 | 0.00 | 0.00 | 0.00 | 88 | 1013.6 |
| 20260505024255 | 59 | 46 | 2.0 | 5.0 | 0.00 | 0.00 | 0.00 | 88 | 1013.6 |
| 20260505023749 | 59 | 36 | 1.0 | 4.0 | 0.00 | 0.00 | 0.00 | 89 | 1013.5 |
| 20260505023247 | 59 | 32 | 0.0 | 3.0 | 0.00 | 0.00 | 0.00 | 89 | 1013.6 |
| 20260505022749 | 59 | 83 | 0.0 | 1.0 | 0.00 | 0.00 | 0.00 | 88 | 1013.6 |
| 20260505022245 | 59 | 83 | 0.0 | 1.0 | 0.00 | 0.00 | 0.00 | 88 | 1013.7 |
| 20260505021744 | 59 | 86 | 0.0 | 1.0 | 0.00 | 0.00 | 0.00 | 88 | 1013.8 |
| 20260505021241 | 59 | 90 | 0.0 | 0.0 | 0.00 | 0.00 | 0.00 | 88 | 1013.8 |
| 20260505020739 | 59 | 90 | 0.0 | 2.0 | 0.00 | 0.00 | 0.00 | 87 | 1013.8 |
| 20260505020238 | 59 | 90 | 0.0 | 2.0 | 0.00 | 0.00 | 0.00 | 87 | 1013.9 |
| 20260505015736 | 59 | 90 | 0.0 | 2.0 | 0.00 | 0.00 | 0.00 | 87 | 1014.0 |
| 20260505015233 | 59 | 90 | 1.0 | 4.0 | 0.00 | 0.00 | 0.00 | 86 | 1014.0 |
| 20260505014731 | 58 | 89 | 1.0 | 4.0 | 0.00 | 0.00 | 0.00 | 86 | 1013.9 |
| 20260505014230 | 58 | 87 | 2.0 | 4.0 | 0.00 | 0.00 | 0.00 | 85 | 1014.0 |
| 20260505013731 | 58 | 84 | 1.0 | 3.0 | 0.00 | 0.00 | 0.00 | 85 | 1014.0 |
| 20260505013232 | 58 | 98 | 1.0 | 4.0 | 0.00 | 0.00 | 0.00 | 84 | 1014.1 |
| 20260505012731 | 58 | 101 | 2.0 | 4.0 | 0.00 | 0.00 | 0.00 | 84 | 1014.2 |
| 20260505011731 | 58 | 96 | 3.0 | 6.0 | 0.00 | 0.00 | 0.00 | 83 | 1014.2 |
| 20260505011231 | 58 | 66 | 3.0 | 6.0 | 0.00 | 0.00 | 0.00 | 82 | 1014.1 |
| 20260505010731 | 58 | 76 | 3.0 | 6.0 | 0.00 | 0.00 | 0.00 | 82 | 1014.2 |
| 20260505010231 | 58 | 90 | 2.0 | 6.0 | 0.00 | 0.00 | 0.00 | 82 | 1014.3 |
| 20260505005231 | 58 | 82 | 3.0 | 6.0 | 0.00 | 0.00 | 0.00 | 80 | 1014.4 |
| 20260505004730 | 58 | 84 | 2.0 | 4.0 | 0.00 | 0.00 | 0.00 | 79 | 1014.5 |
| 20260505004229 | 58 | 78 | 1.0 | 4.0 | 0.00 | 0.00 | 0.00 | 78 | 1014.5 |
| 20260505003727 | 58 | 89 | 0.0 | 0.0 | 0.00 | 0.00 | 0.00 | 77 | 1014.7 |
| 20260505003226 | 58 | 131 | 0.0 | 0.0 | 0.00 | 0.00 | 0.00 | 77 | 1014.8 |
| 20260505002726 | 58 | 131 | 0.0 | 0.0 | 0.00 | 0.00 | 0.00 | 77 | 1014.9 |
| 20260505001726 | 58 | 149 | 0.0 | 0.0 | 0.00 | 0.00 | 0.00 | 76 | 1015.0 |
| 20260505001224 | 58 | 149 | 1.0 | 5.0 | 0.00 | 0.00 | 0.00 | 76 | 1015.1 |
| 20260505000721 | 58 | 149 | 2.0 | 5.0 | 0.00 | 0.00 | 0.00 | 75 | 1015.1 |
| 20260505000221 | 58 | 133 | 1.0 | 4.0 | 0.00 | 0.00 | 0.00 | 75 | 1015.1 |
| 20260504235222 | 58 | 122 | 1.0 | 3.0 | 0.00 | 0.00 | 0.00 | 74 | 1015.1 |
| 20260504234721 | 58 | 96 | 2.0 | 4.0 | 0.00 | 0.00 | 0.00 | 74 | 1015.2 |
| 20260504234221 | 59 | 84 | 1.0 | 4.0 | 0.00 | 0.00 | 0.00 | 73 | 1015.3 |
| 20260504233720 | 59 | 82 | 0.0 | 4.0 | 0.00 | 0.00 | 0.00 | 73 | 1015.3 |
| 20260504233221 | 59 | 142 | 0.0 | 0.0 | 0.00 | 0.00 | 0.00 | 72 | 1015.4 |
| 20260504231721 | 60 | 92 | 0.0 | 0.0 | 0.00 | 0.00 | 0.00 | 71 | 1015.5 |
| 20260504231221 | 60 | 92 | 0.0 | 0.0 | 0.00 | 0.00 | 0.00 | 71 | 1015.5 |
| 20260504230721 | 60 | 94 | 0.0 | 0.0 | 0.00 | 0.00 | 0.00 | 70 | 1015.6 |
| 20260504225721 | 60 | 61 | 0.0 | 0.0 | 0.00 | 0.00 | 0.00 | 70 | 1015.7 |
| 20260504225221 | 60 | 5 | 0.0 | 0.0 | 0.00 | 0.00 | 0.00 | 69 | 1015.8 |
| 20260504224721 | 60 | 5 | 0.0 | 0.0 | 0.00 | 0.00 | 0.00 | 69 | 1015.7 |
| 20260504224221 | 60 | 5 | 0.0 | 0.0 | 0.00 | 0.00 | 0.00 | 69 | 1015.7 |
| 20260504223721 | 60 | 5 | 0.0 | 0.0 | 0.00 | 0.00 | 0.00 | 70 | 1015.8 |
| 20260504223221 | 60 | 5 | 0.0 | 0.0 | 0.00 | 0.00 | 0.00 | 70 | 1015.8 |
| 20260504222724 | 60 | 5 | 0.0 | 0.0 | 0.00 | 0.00 | 0.00 | 71 | 1015.8 |
| 20260504222220 | 60 | 5 | 0.0 | 0.0 | 0.00 | 0.00 | 0.00 | 71 | 1015.8 |
| 20260504221721 | 60 | 5 | 0.0 | 0.0 | 0.00 | 0.00 | 0.00 | 71 | 1015.8 |
| 20260504221219 | 60 | 5 | 0.0 | 0.0 | 0.00 | 0.00 | 0.00 | 71 | 1015.8 |
| 20260504220717 | 60 | 5 | 0.0 | 0.0 | 0.00 | 0.00 | 0.00 | 71 | 1015.8 |
| 20260504220214 | 60 | 5 | 0.0 | 0.0 | 0.00 | 0.00 | 0.00 | 71 | 1015.8 |
| 20260504215714 | 60 | 9 | 0.0 | 0.0 | 0.00 | 0.00 | 0.00 | 71 | 1015.8 |
| 20260504215214 | 60 | 15 | 0.0 | 0.0 | 0.00 | 0.00 | 0.00 | 71 | 1015.8 |
| 20260504214713 | 60 | 22 | 0.0 | 0.0 | 0.00 | 0.00 | 0.00 | 70 | 1015.8 |
| 20260504214212 | 61 | 192 | 0.0 | 0.0 | 0.00 | 0.00 | 0.00 | 69 | 1015.8 |
| 20260504213712 | 61 | 192 | 0.0 | 0.0 | 0.00 | 0.00 | 0.00 | 69 | 1015.8 |
| 20260504212713 | 61 | 194 | 0.0 | 0.0 | 0.00 | 0.00 | 0.00 | 69 | 1015.8 |
| 20260504211708 | 61 | 195 | 0.0 | 0.0 | 0.00 | 0.00 | 0.00 | 68 | 1015.9 |
| 20260504210709 | 61 | 213 | 0.0 | 0.0 | 0.00 | 0.00 | 0.00 | 67 | 1015.8 |
| 20260504210208 | 62 | 213 | 0.0 | 0.0 | 0.00 | 0.00 | 0.00 | 67 | 1015.9 |
| 20260504205709 | 62 | 213 | 0.0 | 0.0 | 0.00 | 0.00 | 0.00 | 66 | 1015.9 |
| 20260504205208 | 62 | 213 | 0.0 | 0.0 | 0.00 | 0.00 | 0.00 | 66 | 1015.8 |
| 20260504204709 | 62 | 213 | 0.0 | 3.0 | 0.00 | 0.00 | 0.00 | 66 | 1015.8 |